Starlink 11388

operational
NORAD ID: 62092 Int'l Des: 2024-220 Owner: SPXS Country: US Constellation: starlink
LEOCIRCULAR

关于 Starlink 11388

正在加载描述...

实时位置

正在加载3D地球...

即将过境

高度历史

Altitude vs Time

uPlot chart will show altitude changes over time

两行轨道根数

1 62092U 24220E 26036.58879550 .00040507 00000-0 31689-3 0 9999
2 62092 42.9990 236.6456 0001686 292.0029 68.0660 15.70896067 69900
Epoch: Feb 5, 2026 • Age: 15 hours

当前状态

高度 368.5 km
速度 7.69 km/s
星下点 -43.10°S, 72.07°W
发射日期 Nov 25, 2024
运行时间 1.1 years
类型 internet

技术详情

分类 Payload
质量 960.00 kg
干质量 910.00 kg
总质量 960.00 kg
长度 0.30 m
直径 4.10 m
跨度 29.00 m
形状 Box + pan
制造商 SPXS
平台类型 Starlink V2MD
阶段状态 In Orbit
所有者/国家 SPXS/US

大型星座

Loading constellations...